Tracking 22779 objects as of 14-Apr-2021
HD Live streaming from Space Station
objects crossing your sky now

SL-3 R/B

Track SL-3 R/B now!
10-day predictions
SL-3 R/B is classified as:


NORAD ID: 13068
Int'l Code: 1982-013B
Perigee: 535.0 km
Apogee: 566.3 km
Inclination: 81.2 °
Period: 95.5 minutes
Semi major axis: 6921 km
RCS: 5.3655 m2 (large)
Launch date: February 19, 1982
Source: Commonwealth of Independent States (former USSR) (CIS)
Launch site: PLESETSK MISSILE AND SPACE COMPLEX (PKMTR)

Note: This is a ROCKET BODY
aabbcc
Your satellite tracking list
Your tracking list is empty




NASA's NSSDC Master Catalog

Two Line Element Set (TLE):
1 13068U 82013B   21104.17098612  .00001130  00000-0  72305-4 0  9990
2 13068  81.2028  66.7855 0022606  23.7088 336.5172 15.07604624133933
Source of the keplerian elements: AFSPC